Weather in Gorokhovka

Russia / Voronezh Oblast     50°06′17″N   40°10′45″E
temp.,
°C
wind,
m/s
gust,
m/s
humid.,
%
clouds,
%
prec.,
mm/h
press.,
hPa
HPBL,
m
20 september, mon
mon2000:00+13se81488100 2.8 1010482
03:00+14se51093100 3.0 1009545
06:00+15s38944 1.0 1008193
09:00+19sw45687 1.9 1009400
12:00+22sw564693 1.3 10091599
15:00+21sw484463 1.3 10091885
18:00+17sw3463100 0.4 101078
21:00+15wsw487498 1.7 1011231
21 september, tue
tue2100:00+14ssw226397 0.1 101245
03:00+12w366573 0.1 1012205
06:00+10wsw3471100 0.0 101387
09:00+12wsw346179 0.0 1013389
12:00+17sw354991 0.1 10111708
15:00+16wsw565199 0.5 10111363
18:00+13wsw686988 0.6 1012714
21:00+9w488198 0.6 1013279
22 september, wed
wed2200:00+10w3682100 0.1 1012555
03:00+9w4577100 0.1 1012531
06:00+9w3573100 0.0 1013517
09:00+9wsw346978 0.0 1013831
12:00+12wsw445299 0.1 10131531
15:00+12wsw445690 0.1 10141334
18:00+9w356731 0.0 1014277
21:00+9w127394 0.0 1015216
23 september, thu
thu2300:00+9w1272100 0.0 1015325
03:00+9sse1174100 0.0 101553
06:00+9sse1174100 0.0 1015149
09:00+10se2266100 0.0 1015525
12:00+13ssw2352100 0.1 10151517
15:00+13ssw0250100 0.2 10141305
18:00+12n2257100 0.0 101427
21:00+11ne2361100 0.0 101453
24 september, fri
fri2400:00+10ene125899 0.0 101411
03:00+9nne116346 0.0 101310
06:00+7e117248 0.0 101310
09:00+12e22645 0.0 1013507
12:00+16sw124724 0.0 10121468
15:00+15wsw3543100 0.0 10111651
18:00+14wnw5750100 0.0 1012491
21:00+12wnw3665100 0.0 1013462